Location: Sevilla
(37.3933°N, 5.9839°W)
Time: 06:11:33
(UTC+02:00)

Vanguard 3 - Pass Details

Date: 28 June 2024
Orbit: 508 x 3231 km, 33.4° (Epoch: 15 July)

Event Time Altitude Azimuth Distance (km) Brightness Sun altitude
Rises 12:33:53 0° 271° (W) 5,675 11.2 61.9°
Reaches altitude 10° 12:38:22 10° 269° (W) 4,214 10.7 62.7°
Maximum altitude 12:48:27 62° 192° (SSW) 1,291 9.4 64.5°
Drops below altitude 10° 12:54:07 10° 112° (ESE) 2,431 10.2 65.5°
Sets 12:56:06 0° 108° (ESE) 3,156 10.5 65.9°
